GW5241 Weather Reports


time (UTC)temp
C
wind
direction
speed
KPH
gust
KPH
rain 1hr
cm
rain 24hr
cm
rain mn
cm
humidity
%
barometer
mb
20260507043034 6 23 0.0 0.0 0.00 0.00 0.00 86 1020.5
20260507041519 7 23 0.0 0.0 0.00 0.00 0.00 84 1020.4
20260507040004 7 4 0.0 0.0 0.00 0.00 0.00 84 1020.3
20260507034509 7 4 0.0 0.0 0.00 0.00 0.00 83 1020.2
20260507033015 7 4 0.0 0.0 0.00 0.00 0.00 81 1020.1
20260507031517 8 4 0.0 0.0 0.00 0.00 0.00 79 1020.0
20260507030023 8 4 0.0 0.0 0.00 0.00 0.00 78 1019.9
20260507024507 8 7 0.0 0.0 0.00 0.00 0.00 75 1019.9
20260507023013 9 22 0.0 3.2 0.00 0.00 0.00 74 1019.7
20260507021516 10 40 0.0 1.6 0.00 0.00 0.00 69 1019.5
20260507020022 11 40 0.0 3.2 0.00 0.00 0.00 65 1019.4
20260507014526 12 40 0.0 3.2 0.00 0.00 0.00 58 1019.1
20260507013011 12 15 1.6 3.2 0.00 0.00 0.00 55 1019.0
20260507011516 13 30 1.6 4.8 0.00 0.00 0.00 53 1019.0
20260507010016 13 33 3.2 8.0 0.00 0.00 0.00 51 1018.8
20260507004520 14 10 3.2 8.0 0.00 0.00 0.00 49 1018.7
20260507003024 14 51 4.8 8.0 0.00 0.00 0.00 48 1018.4
20260507001526 15 22 3.2 9.7 0.00 0.00 0.00 47 1018.3
20260507000015 15 15 4.8 9.7 0.00 0.00 0.00 46 1018.2
20260506234522 15 34 4.8 11.3 0.00 0.00 0.00 43 1017.9
20260506233027 16 359 4.8 14.5 0.00 0.00 0.00 42 1017.6
20260506231527 15 6 9.7 17.7 0.00 0.00 0.00 41 1017.7
20260506230027 16 25 11.3 17.7 0.00 0.00 0.00 42 1017.4
20260506224523 15 31 11.3 17.7 0.00 0.00 0.00 42 1017.4
20260506223024 16 22 6.4 16.1 0.00 0.00 0.00 42 1017.4
20260506221531 15 55 12.9 17.7 0.00 0.00 0.00 43 1017.3
20260506220031 16 45 8.0 19.3 0.00 0.00 0.00 43 1017.4
20260506214530 16 247 8.0 16.1 0.00 0.00 0.00 42 1017.4
20260506213011 16 12 9.7 20.9 0.00 0.00 0.00 43 1017.5
20260506211504 16 44 8.0 16.1 0.00 0.00 0.00 42 1017.4
20260506210008 16 140 8.0 16.1 0.00 0.00 0.00 43 1017.6
20260506204504 16 359 4.8 20.9 0.00 0.00 0.00 44 1018.0
20260506203003 16 30 4.8 20.9 0.00 0.00 0.00 43 1018.3
20260506201508 16 23 6.4 14.5 0.00 0.00 0.00 44 1018.5
20260506200005 16 50 4.8 22.5 0.00 0.00 0.00 42 1018.2
20260506194505 15 31 11.3 22.5 0.00 0.00 0.00 43 1018.3
20260506193006 16 24 8.0 19.3 0.00 0.00 0.00 44 1018.6
20260506191509 16 36 6.4 14.5 0.00 0.00 0.00 45 1018.9
20260506190006 15 57 8.0 19.3 0.00 0.00 0.00 47 1018.9
20260506184507 15 28 8.0 20.9 0.00 0.00 0.00 50 1019.2
20260506183008 15 74 3.2 11.3 0.00 0.00 0.00 52 1019.5
20260506181506 14 32 6.4 12.9 0.00 0.00 0.00 51 1020.1
20260506180006 14 34 4.8 9.7 0.00 0.00 0.00 51 1020.3
20260506174509 13 117 1.6 16.1 0.00 0.00 0.00 54 1020.5
20260506173008 13 107 3.2 17.7 0.00 0.00 0.00 54 1020.2
20260506171508 13 34 8.0 17.7 0.00 0.00 0.00 53 1020.3
20260506170006 13 34 8.0 19.3 0.00 0.00 0.00 54 1020.3
20260506164508 14 34 3.2 16.1 0.00 0.00 0.00 54 1020.1
20260506163019 13 93 8.0 14.5 0.00 0.00 0.00 52 1019.7
20260506161511 13 94 4.8 14.5 0.00 0.00 0.00 55 1019.4
20260506160014 13 1 9.7 16.1 0.00 0.00 0.00 55 1019.0
20260506154509 13 46 3.2 11.3 0.00 0.00 0.00 59 1019.1
20260506153014 12 25 4.8 12.9 0.00 0.00 0.00 62 1019.6
20260506151514 12 32 3.2 12.9 0.00 0.00 0.00 65 1019.2
20260506150012 12 7 3.2 12.9 0.00 0.00 0.00 66 1019.1
20260506144512 11 57 3.2 17.7 0.00 0.00 0.00 69 1019.1
20260506143017 10 126 3.2 11.3 0.00 0.00 0.00 72 1018.9
20260506141516 9 359 1.6 9.7 0.00 0.00 0.00 76 1019.2
20260506140016 8 36 6.4 12.9 0.00 0.00 0.00 76 1019.2
20260506134517 8 40 8.0 14.5 0.00 0.00 0.00 76 1019.4
20260506133018 8 46 4.8 11.3 0.00 0.00 0.00 79 1019.1
20260506131519 8 2 3.2 11.3 0.00 0.00 0.00 80 1019.1
20260506130019 7 50 4.8 16.1 0.00 0.00 0.00 83 1018.8
20260506124519 7 22 4.8 12.9 0.00 0.00 0.00 86 1019.0
20260506123019 7 11 8.0 16.1 0.00 0.00 0.00 87 1018.7
20260506121520 -17 0.0 0.0 0.00 0.00 0.00 1019.3
20260506120030 -17 0.0 0.0 0.00 0.00 0.00 1019.3
20260506114524 -17 0.0 0.0 0.00 0.00 0.00 1018.4
20260506113022 -17 0.0 0.0 0.00 0.00 0.00 1018.4
20260506111526 -17 0.0 0.0 0.00 0.00 0.00 1018.5
20260506110023 -17 0.0 0.0 0.00 0.00 0.00 1018.1
20260506104524 -17 0.0 0.0 0.00 0.00 0.00 1017.7
20260506103024 -17 0.0 0.0 0.00 0.00 0.00 1017.5
20260506101524 -17 0.0 0.0 0.00 0.00 0.00 1017.0
20260506100024 -17 0.0 0.0 0.00 0.00 0.00 1016.7
20260506094524 -17 0.0 0.0 0.00 0.00 0.00 1016.3
20260506093039 -17 0.0 0.0 0.00 0.00 0.00 1016.4
20260506091524 -17 0.0 0.0 0.00 0.00 0.00 1016.3
20260506090027 -17 0.0 0.0 0.00 0.00 0.00 1015.8
20260506084527 -17 0.0 0.0 0.00 0.03 0.00 1015.4
20260506083028 -17 0.0 0.0 0.00 0.05 0.00 1015.5
20260506081524 -17 0.0 0.0 0.00 0.10 0.00 1015.2
20260506073028 7 33 3.2 4.8 0.00 0.41 0.00 86 1014.9
20260506071512 7 75 0.0 9.7 0.00 0.46 0.00 86 1014.6
20260506061526 7 27 1.6 9.7 0.00 0.81 0.00 86 1015.4
20260506044519 7 39 3.2 9.7 0.00 0.94 0.94 88 1015.7